Location: ????????
(55.1591°N, 39.1782°E)
Time: 14:27:34
(UTC+00:00)

Cosmos 1461 - Pass Details

Date: 14 April 2024
Orbit: 499 x 585 km, 65.0° (Epoch: 23 May)

Event Time Altitude Azimuth Distance (km) Brightness Sun altitude
Rises 00:55:39 0° 308° (NW) 2,633 6.1 -11.7°
Reaches altitude 10° 00:58:07 10° 294° (WNW) 1,730 5.1 -11.4°
Maximum altitude 01:01:13 24° 240° (WSW) 1,093 3.7 -11.1°
Drops below altitude 10° 01:04:17 10° 186° (S) 1,703 4.9 -10.7°
Sets 01:06:42 0° 172° (S) 2,580 6.0 -10.4°
